segment_id,date_local,uptime,ped_lft,ped_rgt,ped_total,bike_lft,bike_rgt,bike_total,car_lft,car_rgt,car_total,heavy_lft,heavy_rgt,heavy_total,v85,car_speed0,car_speed10,car_speed20,car_speed30,car_speed40,car_speed50,car_speed60,car_speed70
100024661,2015-06-01 00:00,1.0,,,,53,54,107,,,,,,,
100024661,2015-06-01 01:00,1.0,,,,42,23,65,,,,,,,
100024661,2015-06-01 02:00,1.0,,,,23,10,33,,,,,,,
100024661,2015-06-01 03:00,1.0,,,,10,6,16,,,,,,,
100024661,2015-06-01 04:00,1.0,,,,5,9,14,,,,,,,
100024661,2015-06-01 05:00,1.0,,,,18,26,44,,,,,,,
100024661,2015-06-01 06:00,1.0,,,,44,83,127,,,,,,,
100024661,2015-06-01 07:00,1.0,,,,145,242,387,,,,,,,
100024661,2015-06-01 08:00,1.0,,,,398,689,1087,,,,,,,
100024661,2015-06-01 09:00,1.0,,,,353,439,792,,,,,,,
100024661,2015-06-01 10:00,1.0,,,,76,121,197,,,,,,,
100024661,2015-06-01 11:00,1.0,,,,97,106,203,,,,,,,
100024661,2015-06-01 12:00,1.0,,,,118,124,242,,,,,,,
100024661,2015-06-01 13:00,1.0,,,,163,124,287,,,,,,,
100024661,2015-06-01 14:00,1.0,,,,190,144,334,,,,,,,
100024661,2015-06-01 15:00,1.0,,,,260,203,463,,,,,,,
100024661,2015-06-01 16:00,1.0,,,,253,195,448,,,,,,,
100024661,2015-06-01 17:00,1.0,,,,381,197,578,,,,,,,
100024661,2015-06-01 18:00,1.0,,,,399,303,702,,,,,,,
100024661,2015-06-01 19:00,1.0,,,,258,235,493,,,,,,,
100024661,2015-06-01 20:00,1.0,,,,129,165,294,,,,,,,
100024661,2015-06-01 21:00,1.0,,,,97,107,204,,,,,,,
100024661,2015-06-01 22:00,1.0,,,,99,74,173,,,,,,,
100024661,2015-06-01 23:00,1.0,,,,57,61,118,,,,,,,
100024661,2015-06-02 00:00,1.0,,,,36,40,76,,,,,,,
100024661,2015-06-02 01:00,1.0,,,,16,13,29,,,,,,,
100024661,2015-06-02 02:00,1.0,,,,13,6,19,,,,,,,
100024661,2015-06-02 03:00,1.0,,,,6,5,11,,,,,,,
100024661,2015-06-02 04:00,1.0,,,,3,15,18,,,,,,,
100024661,2015-06-02 05:00,1.0,,,,23,34,57,,,,,,,
100024661,2015-06-02 06:00,1.0,,,,59,90,149,,,,,,,
100024661,2015-06-02 07:00,1.0,,,,174,302,476,,,,,,,
100024661,2015-06-02 08:00,1.0,,,,416,755,1171,,,,,,,
100024661,2015-06-02 09:00,1.0,,,,570,622,1192,,,,,,,
100024661,2015-06-02 10:00,1.0,,,,226,274,500,,,,,,,
100024661,2015-06-02 11:00,1.0,,,,193,195,388,,,,,,,
100024661,2015-06-02 12:00,1.0,,,,222,218,440,,,,,,,
100024661,2015-06-02 13:00,1.0,,,,238,251,489,,,,,,,
100024661,2015-06-02 14:00,1.0,,,,294,277,571,,,,,,,
100024661,2015-06-02 15:00,1.0,,,,377,297,674,,,,,,,
100024661,2015-06-02 16:00,1.0,,,,465,328,793,,,,,,,
100024661,2015-06-02 17:00,1.0,,,,610,413,1023,,,,,,,
100024661,2015-06-02 18:00,1.0,,,,727,639,1366,,,,,,,
100024661,2015-06-02 19:00,1.0,,,,488,488,976,,,,,,,
100024661,2015-06-02 20:00,1.0,,,,277,324,601,,,,,,,
100024661,2015-06-02 21:00,1.0,,,,187,250,437,,,,,,,
100024661,2015-06-02 22:00,1.0,,,,160,172,332,,,,,,,
100024661,2015-06-02 23:00,1.0,,,,142,145,287,,,,,,,
100024661,2015-06-03 00:00,1.0,,,,82,79,161,,,,,,,
100024661,2015-06-03 01:00,1.0,,,,38,41,79,,,,,,,
100024661,2015-06-03 02:00,1.0,,,,22,24,46,,,,,,,
100024661,2015-06-03 03:00,1.0,,,,6,16,22,,,,,,,
100024661,2015-06-03 04:00,1.0,,,,8,16,24,,,,,,,
100024661,2015-06-03 05:00,1.0,,,,19,31,50,,,,,,,
100024661,2015-06-03 06:00,1.0,,,,54,124,178,,,,,,,
100024661,2015-06-03 07:00,1.0,,,,226,321,547,,,,,,,
100024661,2015-06-03 08:00,1.0,,,,511,818,1329,,,,,,,
100024661,2015-06-03 09:00,1.0,,,,550,658,1208,,,,,,,
100024661,2015-06-03 10:00,1.0,,,,266,265,531,,,,,,,
100024661,2015-06-03 11:00,1.0,,,,237,221,458,,,,,,,
100024661,2015-06-03 12:00,1.0,,,,264,216,480,,,,,,,
100024661,2015-06-03 13:00,1.0,,,,276,239,515,,,,,,,
100024661,2015-06-03 14:00,1.0,,,,270,290,560,,,,,,,
100024661,2015-06-03 15:00,1.0,,,,395,323,718,,,,,,,
100024661,2015-06-03 16:00,1.0,,,,406,323,729,,,,,,,
100024661,2015-06-03 17:00,1.0,,,,563,438,1001,,,,,,,
100024661,2015-06-03 18:00,1.0,,,,690,641,1331,,,,,,,
100024661,2015-06-03 19:00,1.0,,,,475,499,974,,,,,,,
100024661,2015-06-03 20:00,1.0,,,,288,363,651,,,,,,,
100024661,2015-06-03 21:00,1.0,,,,196,239,435,,,,,,,
100024661,2015-06-03 22:00,1.0,,,,200,180,380,,,,,,,
100024661,2015-06-03 23:00,1.0,,,,138,137,275,,,,,,,
100024661,2015-06-04 00:00,1.0,,,,99,74,173,,,,,,,
100024661,2015-06-04 01:00,1.0,,,,46,54,100,,,,,,,
100024661,2015-06-04 02:00,1.0,,,,14,21,35,,,,,,,
100024661,2015-06-04 03:00,1.0,,,,9,8,17,,,,,,,
100024661,2015-06-04 04:00,1.0,,,,7,10,17,,,,,,,
100024661,2015-06-04 05:00,1.0,,,,19,41,60,,,,,,,
100024661,2015-06-04 06:00,1.0,,,,50,108,158,,,,,,,
100024661,2015-06-04 07:00,1.0,,,,195,348,543,,,,,,,
100024661,2015-06-04 08:00,1.0,,,,475,758,1233,,,,,,,
100024661,2015-06-04 09:00,1.0,,,,566,650,1216,,,,,,,
100024661,2015-06-04 10:00,1.0,,,,269,291,560,,,,,,,
100024661,2015-06-04 11:00,1.0,,,,218,205,423,,,,,,,
100024661,2015-06-04 12:00,1.0,,,,272,258,530,,,,,,,
100024661,2015-06-04 13:00,1.0,,,,290,272,562,,,,,,,
100024661,2015-06-04 14:00,1.0,,,,355,296,651,,,,,,,
100024661,2015-06-04 15:00,1.0,,,,476,307,783,,,,,,,
100024661,2015-06-04 16:00,1.0,,,,480,368,848,,,,,,,
100024661,2015-06-04 17:00,1.0,,,,611,492,1103,,,,,,,
100024661,2015-06-04 18:00,1.0,,,,667,590,1257,,,,,,,
100024661,2015-06-04 19:00,1.0,,,,536,532,1068,,,,,,,
100024661,2015-06-04 20:00,1.0,,,,381,367,748,,,,,,,
100024661,2015-06-04 21:00,1.0,,,,243,290,533,,,,,,,
100024661,2015-06-04 22:00,1.0,,,,221,248,469,,,,,,,
100024661,2015-06-04 23:00,1.0,,,,185,179,364,,,,,,,
100024661,2015-06-05 00:00,1.0,,,,134,149,283,,,,,,,
100024661,2015-06-05 01:00,1.0,,,,50,78,128,,,,,,,
100024661,2015-06-05 02:00,1.0,,,,39,38,77,,,,,,,
100024661,2015-06-05 03:00,1.0,,,,21,15,36,,,,,,,
100024661,2015-06-05 04:00,1.0,,,,12,22,34,,,,,,,
100024661,2015-06-05 05:00,1.0,,,,28,31,59,,,,,,,
100024661,2015-06-05 06:00,1.0,,,,46,119,165,,,,,,,
100024661,2015-06-05 07:00,1.0,,,,180,311,491,,,,,,,
100024661,2015-06-05 08:00,1.0,,,,406,720,1126,,,,,,,
100024661,2015-06-05 09:00,1.0,,,,492,544,1036,,,,,,,
100024661,2015-06-05 10:00,1.0,,,,268,301,569,,,,,,,
100024661,2015-06-05 11:00,1.0,,,,252,227,479,,,,,,,
100024661,2015-06-05 12:00,1.0,,,,312,293,605,,,,,,,
100024661,2015-06-05 13:00,1.0,,,,352,272,624,,,,,,,
100024661,2015-06-05 14:00,1.0,,,,396,333,729,,,,,,,
100024661,2015-06-05 15:00,1.0,,,,474,332,806,,,,,,,
100024661,2015-06-05 16:00,1.0,,,,458,364,822,,,,,,,
100024661,2015-06-05 17:00,1.0,,,,520,454,974,,,,,,,
100024661,2015-06-05 18:00,1.0,,,,525,538,1063,,,,,,,
100024661,2015-06-05 19:00,1.0,,,,391,438,829,,,,,,,
100024661,2015-06-05 20:00,1.0,,,,286,356,642,,,,,,,
100024661,2015-06-05 21:00,1.0,,,,215,245,460,,,,,,,
100024661,2015-06-05 22:00,1.0,,,,187,218,405,,,,,,,
100024661,2015-06-05 23:00,1.0,,,,204,199,403,,,,,,,
100024661,2015-06-06 00:00,1.0,,,,168,176,344,,,,,,,
100024661,2015-06-06 01:00,1.0,,,,131,132,263,,,,,,,
100024661,2015-06-06 02:00,1.0,,,,80,75,155,,,,,,,
100024661,2015-06-06 03:00,1.0,,,,57,45,102,,,,,,,
100024661,2015-06-06 04:00,1.0,,,,36,21,57,,,,,,,
100024661,2015-06-06 05:00,1.0,,,,29,15,44,,,,,,,
100024661,2015-06-06 06:00,1.0,,,,25,21,46,,,,,,,
100024661,2015-06-06 07:00,1.0,,,,37,31,68,,,,,,,
100024661,2015-06-06 08:00,1.0,,,,82,52,134,,,,,,,
100024661,2015-06-06 09:00,1.0,,,,154,93,247,,,,,,,
100024661,2015-06-06 10:00,1.0,,,,176,149,325,,,,,,,
100024661,2015-06-06 11:00,1.0,,,,203,149,352,,,,,,,
100024661,2015-06-06 12:00,1.0,,,,217,173,390,,,,,,,
100024661,2015-06-06 13:00,1.0,,,,198,228,426,,,,,,,
100024661,2015-06-06 14:00,1.0,,,,203,222,425,,,,,,,
100024661,2015-06-06 15:00,1.0,,,,237,264,501,,,,,,,
100024661,2015-06-06 16:00,1.0,,,,250,278,528,,,,,,,
100024661,2015-06-06 17:00,1.0,,,,221,222,443,,,,,,,
100024661,2015-06-06 18:00,1.0,,,,257,287,544,,,,,,,
100024661,2015-06-06 19:00,1.0,,,,218,292,510,,,,,,,
100024661,2015-06-06 20:00,1.0,,,,183,248,431,,,,,,,
100024661,2015-06-06 21:00,1.0,,,,118,166,284,,,,,,,
100024661,2015-06-06 22:00,1.0,,,,117,132,249,,,,,,,
100024661,2015-06-06 23:00,1.0,,,,183,136,319,,,,,,,
100024661,2015-06-07 00:00,1.0,,,,143,123,266,,,,,,,
100024661,2015-06-07 01:00,1.0,,,,103,103,206,,,,,,,
100024661,2015-06-07 02:00,1.0,,,,95,56,151,,,,,,,
100024661,2015-06-07 03:00,1.0,,,,57,53,110,,,,,,,
100024661,2015-06-07 04:00,1.0,,,,38,24,62,,,,,,,
100024661,2015-06-07 05:00,1.0,,,,30,8,38,,,,,,,
100024661,2015-06-07 06:00,1.0,,,,29,25,54,,,,,,,
100024661,2015-06-07 07:00,1.0,,,,18,25,43,,,,,,,
100024661,2015-06-07 08:00,1.0,,,,45,31,76,,,,,,,
100024661,2015-06-07 09:00,1.0,,,,70,48,118,,,,,,,
100024661,2015-06-07 10:00,1.0,,,,97,89,186,,,,,,,
100024661,2015-06-07 11:00,1.0,,,,118,79,197,,,,,,,
100024661,2015-06-07 12:00,1.0,,,,158,122,280,,,,,,,
100024661,2015-06-07 13:00,1.0,,,,193,190,383,,,,,,,
100024661,2015-06-07 14:00,1.0,,,,183,216,399,,,,,,,
100024661,2015-06-07 15:00,1.0,,,,179,273,452,,,,,,,
100024661,2015-06-07 16:00,1.0,,,,208,223,431,,,,,,,
100024661,2015-06-07 17:00,1.0,,,,230,221,451,,,,,,,
100024661,2015-06-07 18:00,1.0,,,,289,251,540,,,,,,,
100024661,2015-06-07 19:00,1.0,,,,250,200,450,,,,,,,
100024661,2015-06-07 20:00,1.0,,,,175,181,356,,,,,,,
100024661,2015-06-07 21:00,1.0,,,,130,120,250,,,,,,,
100024661,2015-06-07 22:00,1.0,,,,125,112,237,,,,,,,
100024661,2015-06-07 23:00,1.0,,,,76,106,182,,,,,,,
100024661,2015-06-08 00:00,1.0,,,,50,66,116,,,,,,,
100024661,2015-06-08 01:00,1.0,,,,26,34,60,,,,,,,
100024661,2015-06-08 02:00,1.0,,,,10,15,25,,,,,,,
100024661,2015-06-08 03:00,1.0,,,,9,9,18,,,,,,,
100024661,2015-06-08 04:00,1.0,,,,6,11,17,,,,,,,
100024661,2015-06-08 05:00,1.0,,,,23,31,54,,,,,,,
100024661,2015-06-08 06:00,1.0,,,,43,111,154,,,,,,,
100024661,2015-06-08 07:00,1.0,,,,179,303,482,,,,,,,
100024661,2015-06-08 08:00,1.0,,,,462,786,1248,,,,,,,
100024661,2015-06-08 09:00,1.0,,,,585,664,1249,,,,,,,
100024661,2015-06-08 10:00,1.0,,,,262,233,495,,,,,,,
100024661,2015-06-08 11:00,1.0,,,,218,219,437,,,,,,,
100024661,2015-06-08 12:00,1.0,,,,226,241,467,,,,,,,
100024661,2015-06-08 13:00,1.0,,,,243,262,505,,,,,,,
100024661,2015-06-08 14:00,1.0,,,,265,279,544,,,,,,,
100024661,2015-06-08 15:00,1.0,,,,395,299,694,,,,,,,
100024661,2015-06-08 16:00,1.0,,,,490,344,834,,,,,,,
100024661,2015-06-08 17:00,1.0,,,,563,403,966,,,,,,,
100024661,2015-06-08 18:00,1.0,,,,730,590,1320,,,,,,,
100024661,2015-06-08 19:00,1.0,,,,444,433,877,,,,,,,
100024661,2015-06-08 20:00,1.0,,,,235,323,558,,,,,,,
100024661,2015-06-08 21:00,1.0,,,,186,220,406,,,,,,,
100024661,2015-06-08 22:00,1.0,,,,144,133,277,,,,,,,
100024661,2015-06-08 23:00,1.0,,,,95,99,194,,,,,,,
100024661,2015-06-09 00:00,1.0,,,,51,51,102,,,,,,,
100024661,2015-06-09 01:00,1.0,,,,23,38,61,,,,,,,
100024661,2015-06-09 02:00,1.0,,,,18,14,32,,,,,,,
100024661,2015-06-09 03:00,1.0,,,,6,2,8,,,,,,,
100024661,2015-06-09 04:00,1.0,,,,8,9,17,,,,,,,
100024661,2015-06-09 05:00,1.0,,,,20,36,56,,,,,,,
100024661,2015-06-09 06:00,1.0,,,,46,119,165,,,,,,,
100024661,2015-06-09 07:00,1.0,,,,199,328,527,,,,,,,
100024661,2015-06-09 08:00,1.0,,,,456,851,1307,,,,,,,
100024661,2015-06-09 09:00,1.0,,,,587,717,1304,,,,,,,
100024661,2015-06-09 10:00,1.0,,,,274,300,574,,,,,,,
100024661,2015-06-09 11:00,1.0,,,,262,198,460,,,,,,,
100024661,2015-06-09 12:00,1.0,,,,239,252,491,,,,,,,
100024661,2015-06-09 13:00,1.0,,,,252,298,550,,,,,,,
100024661,2015-06-09 14:00,1.0,,,,284,288,572,,,,,,,
100024661,2015-06-09 15:00,1.0,,,,398,328,726,,,,,,,
100024661,2015-06-09 16:00,1.0,,,,502,325,827,,,,,,,
100024661,2015-06-09 17:00,1.0,,,,616,443,1059,,,,,,,
100024661,2015-06-09 18:00,1.0,,,,731,632,1363,,,,,,,
100024661,2015-06-09 19:00,1.0,,,,504,524,1028,,,,,,,
100024661,2015-06-09 20:00,1.0,,,,296,334,630,,,,,,,
100024661,2015-06-09 21:00,1.0,,,,192,273,465,,,,,,,
100024661,2015-06-09 22:00,1.0,,,,178,202,380,,,,,,,
100024661,2015-06-09 23:00,1.0,,,,114,119,233,,,,,,,
100024661,2015-06-10 00:00,1.0,,,,91,91,182,,,,,,,
100024661,2015-06-10 01:00,1.0,,,,46,33,79,,,,,,,
100024661,2015-06-10 02:00,1.0,,,,19,9,28,,,,,,,
100024661,2015-06-10 03:00,1.0,,,,16,10,26,,,,,,,
100024661,2015-06-10 04:00,1.0,,,,6,8,14,,,,,,,
100024661,2015-06-10 05:00,1.0,,,,15,39,54,,,,,,,
100024661,2015-06-10 06:00,1.0,,,,41,117,158,,,,,,,
100024661,2015-06-10 07:00,1.0,,,,202,335,537,,,,,,,
100024661,2015-06-10 08:00,1.0,,,,470,773,1243,,,,,,,
100024661,2015-06-10 09:00,1.0,,,,618,682,1300,,,,,,,
100024661,2015-06-10 10:00,1.0,,,,246,283,529,,,,,,,
100024661,2015-06-10 11:00,1.0,,,,271,209,480,,,,,,,
100024661,2015-06-10 12:00,1.0,,,,249,251,500,,,,,,,
100024661,2015-06-10 13:00,1.0,,,,254,266,520,,,,,,,
100024661,2015-06-10 14:00,1.0,,,,301,279,580,,,,,,,
100024661,2015-06-10 15:00,1.0,,,,397,275,672,,,,,,,
100024661,2015-06-10 16:00,1.0,,,,459,328,787,,,,,,,
100024661,2015-06-10 17:00,1.0,,,,588,457,1045,,,,,,,
100024661,2015-06-10 18:00,1.0,,,,715,579,1294,,,,,,,
100024661,2015-06-10 19:00,1.0,,,,427,511,938,,,,,,,
100024661,2015-06-10 20:00,1.0,,,,296,331,627,,,,,,,
100024661,2015-06-10 21:00,1.0,,,,218,240,458,,,,,,,
100024661,2015-06-10 22:00,1.0,,,,199,191,390,,,,,,,
100024661,2015-06-10 23:00,1.0,,,,143,140,283,,,,,,,
100024661,2015-06-11 00:00,1.0,,,,119,107,226,,,,,,,
100024661,2015-06-11 01:00,1.0,,,,56,47,103,,,,,,,
100024661,2015-06-11 02:00,1.0,,,,12,25,37,,,,,,,
100024661,2015-06-11 03:00,1.0,,,,7,13,20,,,,,,,
100024661,2015-06-11 04:00,1.0,,,,5,10,15,,,,,,,
100024661,2015-06-11 05:00,1.0,,,,22,50,72,,,,,,,
100024661,2015-06-11 06:00,1.0,,,,45,105,150,,,,,,,
100024661,2015-06-11 07:00,1.0,,,,212,326,538,,,,,,,
100024661,2015-06-11 08:00,1.0,,,,479,785,1264,,,,,,,
100024661,2015-06-11 09:00,1.0,,,,569,715,1284,,,,,,,
100024661,2015-06-11 10:00,1.0,,,,274,296,570,,,,,,,
100024661,2015-06-11 11:00,1.0,,,,254,229,483,,,,,,,
100024661,2015-06-11 12:00,1.0,,,,248,232,480,,,,,,,
100024661,2015-06-11 13:00,1.0,,,,233,256,489,,,,,,,
100024661,2015-06-11 14:00,1.0,,,,234,287,521,,,,,,,
100024661,2015-06-11 15:00,1.0,,,,280,320,600,,,,,,,
100024661,2015-06-11 16:00,1.0,,,,483,372,855,,,,,,,
100024661,2015-06-11 17:00,1.0,,,,582,457,1039,,,,,,,
100024661,2015-06-11 18:00,1.0,,,,731,652,1383,,,,,,,
100024661,2015-06-11 19:00,1.0,,,,529,495,1024,,,,,,,
100024661,2015-06-11 20:00,1.0,,,,322,393,715,,,,,,,
100024661,2015-06-11 21:00,1.0,,,,237,284,521,,,,,,,
100024661,2015-06-11 22:00,1.0,,,,229,259,488,,,,,,,
100024661,2015-06-11 23:00,1.0,,,,178,186,364,,,,,,,
100024661,2015-06-12 00:00,1.0,,,,133,110,243,,,,,,,
100024661,2015-06-12 01:00,1.0,,,,66,67,133,,,,,,,
100024661,2015-06-12 02:00,1.0,,,,48,35,83,,,,,,,
100024661,2015-06-12 03:00,1.0,,,,23,15,38,,,,,,,
100024661,2015-06-12 04:00,1.0,,,,12,12,24,,,,,,,
100024661,2015-06-12 05:00,1.0,,,,17,29,46,,,,,,,
100024661,2015-06-12 06:00,1.0,,,,37,80,117,,,,,,,
100024661,2015-06-12 07:00,1.0,,,,162,277,439,,,,,,,
100024661,2015-06-12 08:00,1.0,,,,398,647,1045,,,,,,,
100024661,2015-06-12 09:00,1.0,,,,511,608,1119,,,,,,,
100024661,2015-06-12 10:00,1.0,,,,286,263,549,,,,,,,
100024661,2015-06-12 11:00,1.0,,,,228,204,432,,,,,,,
100024661,2015-06-12 12:00,1.0,,,,262,262,524,,,,,,,
100024661,2015-06-12 13:00,1.0,,,,315,289,604,,,,,,,
100024661,2015-06-12 14:00,1.0,,,,357,364,721,,,,,,,
100024661,2015-06-12 15:00,1.0,,,,413,360,773,,,,,,,
100024661,2015-06-12 16:00,1.0,,,,445,379,824,,,,,,,
100024661,2015-06-12 17:00,1.0,,,,475,443,918,,,,,,,
100024661,2015-06-12 18:00,1.0,,,,531,539,1070,,,,,,,
100024661,2015-06-12 19:00,1.0,,,,404,430,834,,,,,,,
100024661,2015-06-12 20:00,1.0,,,,279,351,630,,,,,,,
100024661,2015-06-12 21:00,1.0,,,,194,291,485,,,,,,,
100024661,2015-06-12 22:00,1.0,,,,201,223,424,,,,,,,
100024661,2015-06-12 23:00,1.0,,,,177,206,383,,,,,,,
100024661,2015-06-13 00:00,1.0,,,,183,147,330,,,,,,,
100024661,2015-06-13 01:00,1.0,,,,124,96,220,,,,,,,
100024661,2015-06-13 02:00,1.0,,,,104,72,176,,,,,,,
100024661,2015-06-13 03:00,1.0,,,,66,56,122,,,,,,,
100024661,2015-06-13 04:00,1.0,,,,49,33,82,,,,,,,
100024661,2015-06-13 05:00,1.0,,,,26,21,47,,,,,,,
100024661,2015-06-13 06:00,1.0,,,,21,18,39,,,,,,,
100024661,2015-06-13 07:00,1.0,,,,42,27,69,,,,,,,
100024661,2015-06-13 08:00,1.0,,,,77,65,142,,,,,,,
100024661,2015-06-13 09:00,1.0,,,,145,96,241,,,,,,,
100024661,2015-06-13 10:00,1.0,,,,164,151,315,,,,,,,
100024661,2015-06-13 11:00,1.0,,,,192,164,356,,,,,,,
100024661,2015-06-13 12:00,1.0,,,,222,186,408,,,,,,,
100024661,2015-06-13 13:00,1.0,,,,251,212,463,,,,,,,
100024661,2015-06-13 14:00,1.0,,,,288,262,550,,,,,,,
100024661,2015-06-13 15:00,1.0,,,,201,221,422,,,,,,,
100024661,2015-06-13 16:00,1.0,,,,185,245,430,,,,,,,
100024661,2015-06-13 17:00,1.0,,,,199,188,387,,,,,,,
100024661,2015-06-13 18:00,1.0,,,,216,237,453,,,,,,,
100024661,2015-06-13 19:00,1.0,,,,169,194,363,,,,,,,
100024661,2015-06-13 20:00,1.0,,,,107,151,258,,,,,,,
100024661,2015-06-13 21:00,1.0,,,,66,138,204,,,,,,,
100024661,2015-06-13 22:00,1.0,,,,77,158,235,,,,,,,
100024661,2015-06-13 23:00,1.0,,,,66,90,156,,,,,,,
100024661,2015-06-14 00:00,1.0,,,,68,98,166,,,,,,,
100024661,2015-06-14 01:00,1.0,,,,74,62,136,,,,,,,
100024661,2015-06-14 02:00,1.0,,,,57,61,118,,,,,,,
100024661,2015-06-14 03:00,1.0,,,,26,37,63,,,,,,,
100024661,2015-06-14 04:00,1.0,,,,25,21,46,,,,,,,
100024661,2015-06-14 05:00,1.0,,,,18,15,33,,,,,,,
100024661,2015-06-14 06:00,1.0,,,,17,16,33,,,,,,,
100024661,2015-06-14 07:00,1.0,,,,20,10,30,,,,,,,
100024661,2015-06-14 08:00,1.0,,,,46,30,76,,,,,,,
100024661,2015-06-14 09:00,1.0,,,,87,87,174,,,,,,,
100024661,2015-06-14 10:00,1.0,,,,113,108,221,,,,,,,
100024661,2015-06-14 11:00,1.0,,,,143,129,272,,,,,,,
100024661,2015-06-14 12:00,1.0,,,,159,176,335,,,,,,,
100024661,2015-06-14 13:00,1.0,,,,168,176,344,,,,,,,
100024661,2015-06-14 14:00,1.0,,,,227,233,460,,,,,,,
100024661,2015-06-14 15:00,1.0,,,,247,273,520,,,,,,,
100024661,2015-06-14 16:00,1.0,,,,214,224,438,,,,,,,
100024661,2015-06-14 17:00,1.0,,,,45,185,230,,,,,,,
100024661,2015-06-14 18:00,1.0,,,,195,214,409,,,,,,,
100024661,2015-06-14 19:00,1.0,,,,195,199,394,,,,,,,
100024661,2015-06-14 20:00,1.0,,,,132,149,281,,,,,,,
100024661,2015-06-14 21:00,1.0,,,,119,127,246,,,,,,,
100024661,2015-06-14 22:00,1.0,,,,111,133,244,,,,,,,
100024661,2015-06-14 23:00,1.0,,,,58,84,142,,,,,,,
100024661,2015-06-15 00:00,1.0,,,,58,53,111,,,,,,,
100024661,2015-06-15 01:00,1.0,,,,29,33,62,,,,,,,
100024661,2015-06-15 02:00,1.0,,,,10,11,21,,,,,,,
100024661,2015-06-15 03:00,1.0,,,,9,11,20,,,,,,,
100024661,2015-06-15 04:00,1.0,,,,11,6,17,,,,,,,
100024661,2015-06-15 05:00,1.0,,,,23,33,56,,,,,,,
100024661,2015-06-15 06:00,1.0,,,,47,94,141,,,,,,,
100024661,2015-06-15 07:00,1.0,,,,174,300,474,,,,,,,
100024661,2015-06-15 08:00,1.0,,,,436,763,1199,,,,,,,
100024661,2015-06-15 09:00,1.0,,,,517,658,1175,,,,,,,
100024661,2015-06-15 10:00,1.0,,,,225,263,488,,,,,,,
100024661,2015-06-15 11:00,1.0,,,,197,175,372,,,,,,,
100024661,2015-06-15 12:00,1.0,,,,230,233,463,,,,,,,
100024661,2015-06-15 13:00,1.0,,,,275,215,490,,,,,,,
100024661,2015-06-15 14:00,1.0,,,,281,273,554,,,,,,,
100024661,2015-06-15 15:00,1.0,,,,368,291,659,,,,,,,
100024661,2015-06-15 16:00,1.0,,,,455,353,808,,,,,,,
100024661,2015-06-15 17:00,1.0,,,,545,423,968,,,,,,,
100024661,2015-06-15 18:00,1.0,,,,709,649,1358,,,,,,,
100024661,2015-06-15 19:00,1.0,,,,483,495,978,,,,,,,
100024661,2015-06-15 20:00,1.0,,,,278,319,597,,,,,,,
100024661,2015-06-15 21:00,1.0,,,,211,225,436,,,,,,,
100024661,2015-06-15 22:00,1.0,,,,165,144,309,,,,,,,
100024661,2015-06-15 23:00,1.0,,,,107,114,221,,,,,,,
100024661,2015-06-16 00:00,1.0,,,,48,67,115,,,,,,,
100024661,2015-06-16 01:00,1.0,,,,35,32,67,,,,,,,
100024661,2015-06-16 02:00,1.0,,,,16,9,25,,,,,,,
100024661,2015-06-16 03:00,1.0,,,,10,9,19,,,,,,,
100024661,2015-06-16 04:00,1.0,,,,4,12,16,,,,,,,
100024661,2015-06-16 05:00,1.0,,,,18,43,61,,,,,,,
100024661,2015-06-16 06:00,1.0,,,,45,101,146,,,,,,,
100024661,2015-06-16 07:00,1.0,,,,182,326,508,,,,,,,
100024661,2015-06-16 08:00,1.0,,,,469,796,1265,,,,,,,
100024661,2015-06-16 09:00,1.0,,,,562,670,1232,,,,,,,
100024661,2015-06-16 10:00,1.0,,,,299,289,588,,,,,,,
100024661,2015-06-16 11:00,1.0,,,,179,202,381,,,,,,,
100024661,2015-06-16 12:00,1.0,,,,218,216,434,,,,,,,
100024661,2015-06-16 13:00,1.0,,,,230,227,457,,,,,,,
100024661,2015-06-16 14:00,1.0,,,,269,254,523,,,,,,,
100024661,2015-06-16 15:00,1.0,,,,297,310,607,,,,,,,
100024661,2015-06-16 16:00,1.0,,,,435,308,743,,,,,,,
100024661,2015-06-16 17:00,1.0,,,,540,377,917,,,,,,,
100024661,2015-06-16 18:00,1.0,,,,733,591,1324,,,,,,,
100024661,2015-06-16 19:00,1.0,,,,446,470,916,,,,,,,
100024661,2015-06-16 20:00,1.0,,,,251,332,583,,,,,,,
100024661,2015-06-16 21:00,1.0,,,,187,246,433,,,,,,,
100024661,2015-06-16 22:00,1.0,,,,153,145,298,,,,,,,
100024661,2015-06-16 23:00,1.0,,,,129,129,258,,,,,,,
100024661,2015-06-17 00:00,1.0,,,,86,62,148,,,,,,,
100024661,2015-06-17 01:00,1.0,,,,37,27,64,,,,,,,
100024661,2015-06-17 02:00,1.0,,,,17,17,34,,,,,,,
100024661,2015-06-17 03:00,1.0,,,,11,13,24,,,,,,,
100024661,2015-06-17 04:00,1.0,,,,8,13,21,,,,,,,
100024661,2015-06-17 05:00,1.0,,,,22,37,59,,,,,,,
100024661,2015-06-17 06:00,1.0,,,,41,103,144,,,,,,,
100024661,2015-06-17 07:00,1.0,,,,170,336,506,,,,,,,
100024661,2015-06-17 08:00,1.0,,,,501,779,1280,,,,,,,
100024661,2015-06-17 09:00,1.0,,,,556,654,1210,,,,,,,
100024661,2015-06-17 10:00,1.0,,,,258,294,552,,,,,,,
100024661,2015-06-17 11:00,1.0,,,,201,198,399,,,,,,,
100024661,2015-06-17 12:00,1.0,,,,167,224,391,,,,,,,
100024661,2015-06-17 13:00,1.0,,,,286,230,516,,,,,,,
100024661,2015-06-17 14:00,1.0,,,,323,288,611,,,,,,,
100024661,2015-06-17 15:00,1.0,,,,437,355,792,,,,,,,
100024661,2015-06-17 16:00,1.0,,,,466,378,844,,,,,,,
100024661,2015-06-17 17:00,1.0,,,,569,440,1009,,,,,,,
100024661,2015-06-17 18:00,1.0,,,,738,577,1315,,,,,,,
100024661,2015-06-17 19:00,1.0,,,,506,517,1023,,,,,,,
100024661,2015-06-17 20:00,1.0,,,,273,361,634,,,,,,,
100024661,2015-06-17 21:00,1.0,,,,210,233,443,,,,,,,
100024661,2015-06-17 22:00,1.0,,,,196,195,391,,,,,,,
100024661,2015-06-17 23:00,1.0,,,,117,163,280,,,,,,,
100024661,2015-06-18 00:00,1.0,,,,88,83,171,,,,,,,
100024661,2015-06-18 01:00,1.0,,,,32,44,76,,,,,,,
100024661,2015-06-18 02:00,1.0,,,,9,20,29,,,,,,,
100024661,2015-06-18 03:00,1.0,,,,19,17,36,,,,,,,
100024661,2015-06-18 04:00,1.0,,,,4,3,7,,,,,,,
100024661,2015-06-18 05:00,1.0,,,,16,17,33,,,,,,,
100024661,2015-06-18 06:00,1.0,,,,32,59,91,,,,,,,
100024661,2015-06-18 07:00,1.0,,,,136,217,353,,,,,,,
100024661,2015-06-18 08:00,1.0,,,,349,602,951,,,,,,,
100024661,2015-06-18 09:00,1.0,,,,476,520,996,,,,,,,
100024661,2015-06-18 10:00,1.0,,,,221,252,473,,,,,,,
100024661,2015-06-18 11:00,1.0,,,,209,180,389,,,,,,,
100024661,2015-06-18 12:00,1.0,,,,173,194,367,,,,,,,
100024661,2015-06-18 13:00,1.0,,,,209,224,433,,,,,,,
100024661,2015-06-18 14:00,1.0,,,,283,236,519,,,,,,,
100024661,2015-06-18 15:00,1.0,,,,292,279,571,,,,,,,
100024661,2015-06-18 16:00,1.0,,,,359,283,642,,,,,,,
100024661,2015-06-18 17:00,1.0,,,,433,390,823,,,,,,,
100024661,2015-06-18 18:00,1.0,,,,594,466,1060,,,,,,,
100024661,2015-06-18 19:00,1.0,,,,378,419,797,,,,,,,
100024661,2015-06-18 20:00,1.0,,,,250,325,575,,,,,,,
100024661,2015-06-18 21:00,1.0,,,,148,197,345,,,,,,,
100024661,2015-06-18 22:00,1.0,,,,161,152,313,,,,,,,
100024661,2015-06-18 23:00,1.0,,,,113,161,274,,,,,,,
100024661,2015-06-19 00:00,1.0,,,,68,81,149,,,,,,,
100024661,2015-06-19 01:00,1.0,,,,33,51,84,,,,,,,
100024661,2015-06-19 02:00,1.0,,,,23,12,35,,,,,,,
100024661,2015-06-19 03:00,1.0,,,,13,16,29,,,,,,,
100024661,2015-06-19 04:00,1.0,,,,17,7,24,,,,,,,
100024661,2015-06-19 05:00,1.0,,,,20,33,53,,,,,,,
100024661,2015-06-19 06:00,1.0,,,,46,87,133,,,,,,,
100024661,2015-06-19 07:00,1.0,,,,140,211,351,,,,,,,
100024661,2015-06-19 08:00,1.0,,,,317,469,786,,,,,,,
100024661,2015-06-19 09:00,1.0,,,,373,449,822,,,,,,,
100024661,2015-06-19 10:00,1.0,,,,184,207,391,,,,,,,
100024661,2015-06-19 11:00,1.0,,,,161,177,338,,,,,,,
100024661,2015-06-19 12:00,1.0,,,,179,175,354,,,,,,,
100024661,2015-06-19 13:00,1.0,,,,212,199,411,,,,,,,